Wind_Speed
81 83 83 82 83 85 86 86 85 85 85 86 85 85 85 83 82 78 80 76 74 72 71 73 80 78 80 82 81 81 81 81 82 78 77 74 68 68 63 60 61 67 73 72 78 71 47 58 67 72 82 85 75 77
80 82 83 82 82 83 84 85 84 82 83 82 83 83 81 79 78 76 76 77 75 73 70 76 78 82 81 84 80 78 73 76 78 73 71 69 64 63 62 54 63 64 72 74 72 63 56 62 74 70 85 81 73 70
81 82 82 80 79 81 81 80 79 78 76 73 74 76 75 73 74 73 74 75 74 71 69 72 81 78 79 79 76 67 69 73 67 70 66 62 58 61 61 54 66 64 70 68 76 59 60 65 71 68 78 72 69 69
78 78 76 76 76 74 74 73 71 70 69 71 71 71 72 71 72 72 71 73 72 70 64 67 75 76 74 74 71 62 64 65 62 63 62 59 60 63 61 57 58 61 61 68 64 57 62 58 66 65 68 64 66 71
74 73 73 72 70 70 71 70 71 71 71 70 70 69 70 68 69 68 67 68 69 66 62 63 67 69 70 67 63 60 58 57 58 58 59 60 60 64 58 53 44 53 54 63 57 58 57 56 60 61 60 61 62 67
71 70 68 67 66 65 65 66 65 64 64 65 67 67 65 65 64 62 59 63 65 62 56 53 57 62 60 57 56 54 55 57 57 58 60 62 61 59 53 42 39 53 55 61 56 54 55 49 49 57 57 59 64 63
66 66 65 65 63 62 62 62 60 59 60 59 59 61 62 62 60 57 57 61 58 56 52 47 45 54 51 50 50 52 55 56 58 58 59 55 51 50 46 39 51 47 44 49 52 46 42 52 49 52 55 58 59 58
63 63 62 61 60 59 60 59 59 58 56 55 55 56 56 57 55 53 52 53 50 47 46 40 43 46 45 46 48 52 53 53 53 52 51 49 52 43 39 38 35 41 38 39 39 32 37 40 39 46 53 50 45 50
60 59 59 57 56 57 59 59 58 56 56 56 54 53 53 52 51 52 51 48 45 43 40 39 42 40 42 46 48 48 47 47 47 46 46 46 44 42 43 39 33 32 30 29 30 26 30 32 43 41 37 40 42 43
58 57 56 55 54 54 54 54 55 56 57 55 54 53 51 52 52 51 47 44 41 39 38 39 38 39 43 42 42 44 44 45 44 42 42 40 40 41 40 36 34 33 31 28 28 29 32 33 32 34 36 36 37 39
56 55 54 53 52 51 52 53 53 54 54 53 53 52 51 51 51 47 43 40 39 37 37 36 37 41 40 38 42 42 40 40 41 39 38 38 40 40 38 33 28 26 28 27 29 27 29 30 30 32 32 33 34 32
57 55 52 52 51 50 51 52 52 53 52 51 50 50 49 49 44 37 34 34 35 35 34 39 42 39 37 39 41 38 37 37 37 38 36 38 36 36 36 29 24 21 23 25 23 26 28 30 30 32 32 33 30 30
57 55 53 52 50 50 50 49 51 50 50 49 49 48 45 41 32 26 30 33 35 39 40 40 38 34 37 37 37 36 35 32 33 36 34 33 32 32 31 25 19 17 21 18 22 26 25 27 29 31 29 30 29 31
56 55 54 52 50 50 49 49 48 47 47 46 45 43 38 28 27 32 36 38 38 39 39 36 34 35 36 34 33 33 35 34 32 32 31 29 29 27 27 21 17 16 14 17 21 22 24 26 27 28 26 27 28 28
57 56 55 53 52 50 48 46 45 45 43 42 40 36 30 31 36 39 40 41 40 37 35 34 34 34 33 31 30 30 30 31 30 27 26 30 26 23 24 20 16 13 15 20 23 25 27 28 29 31 28 28 28 30
57 57 56 53 50 48 46 44 43 43 40 37 34 32 32 35 38 40 40 39 36 33 33 32 33 33 32 30 27 27 26 28 26 23 26 28 26 22 19 20 18 17 21 24 25 26 28 30 29 29 27 29 32 35
57 58 55 53 50 46 45 44 40 37 33 31 33 33 37 39 39 37 36 36 35 32 31 33 33 33 30 30 30 28 25 22 20 23 26 29 26 24 18 19 21 21 23 26 26 28 29 28 29 31 32 33 38 39
56 54 54 51 47 44 42 39 36 31 30 34 35 37 39 38 37 36 35 34 32 30 32 31 30 30 30 28 28 25 22 21 21 24 28 27 25 21 19 19 22 23 24 26 27 27 28 31 29 29 30 35 40 47
52 52 51 46 44 43 40 37 33 32 35 37 36 38 38 36 35 33 32 31 29 30 30 29 29 28 27 28 25 22 20 20 21 24 23 20 21 19 19 19 21 23 24 25 27 29 29 27 27 29 31 34 36 42
51 50 49 50 47 43 40 36 33 34 35 37 39 40 38 36 34 32 30 28 28 28 27 27 26 27 25 23 20 20 19 19 19 19 18 16 16 17 17 17 19 21 23 23 23 24 27 29 30 31 33 35 35 35
52 51 50 47 44 41 38 36 33 34 38 41 42 39 36 33 32 29 27 28 27 25 25 25 25 23 20 19 20 20 19 17 16 15 15 14 13 15 16 17 19 19 19 20 20 21 23 26 27 29 30 32 35 37
51 51 50 47 43 42 41 38 40 41 43 43 41 39 36 33 29 27 26 25 24 23 22 21 20 19 18 18 18 17 15 13 12 11 12 12 12 11 12 14 16 18 18 19 19 19 21 22 23 25 26 27 32 37
48 48 46 44 43 41 40 39 37 39 41 41 39 36 31 29 27 26 24 23 21 19 18 17 17 17 16 17 15 14 13 12 12 11 12 13 12 10 9 10 13 15 16 16 15 16 18 18 19 21 23 26 28 30
45 43 39 39 41 39 36 35 37 38 39 38 35 32 30 28 26 24 23 20 18 15 14 14 14 13 13 13 12 12 11 10 10 11 12 12 11 10 10 10 10 11 12 14 14 15 17 18 19 20 22 24 25 26
39 41 43 44 42 40 39 37 36 36 37 36 35 32 30 28 26 23 20 17 15 13 12 13 12 11 10 7 7 8 8 8 7 7 9 9 10 12 12 11 10 9 9 9 10 11 12 13 15 17 19 20 21 23
47 49 47 44 41 40 39 39 37 37 37 36 33 31 28 25 23 21 18 16 13 10 11 12 13 13 11 8 5 5 6 7 6 7 9 9 9 9 8 8 7 6 6 6 7 8 10 12 13 15 18 20 22 25
50 47 43 43 43 42 39 34 33 34 34 32 29 26 25 23 23 19 17 15 12 10 11 14 15 13 12 10 8 8 7 6 6 6 6 5 5 4 4 3 3 4 6 8 10 12 14 16 18 20 22 25 27 28
49 45 44 41 38 34 32 32 33 34 32 29 26 26 26 24 20 18 16 14 12 12 12 11 10 10 10 10 9 8 8 7 6 5 5 3 3 2 3 4 6 8 10 12 14 16 19 21 23 24 25 26 27 28
42 42 40 37 35 36 38 37 35 30 26 26 26 24 21 18 19 21 18 16 16 14 13 12 12 11 10 9 9 8 8 8 7 6 5 4 4 5 6 8 10 11 14 17 18 20 22 24 25 26 26 27 29 31
42 41 41 41 39 35 30 27 26 26 25 25 24 22 21 23 26 24 22 20 18 15 15 13 12 11 11 10 10 9 7 6 5 4 4 5 7 9 11 13 15 17 19 21 22 23 23 23 24 25 27 28 30 32
41 39 37 34 33 33 31 29 29 28 26 23 22 21 20 20 21 22 22 21 19 17 16 15 13 12 11 10 9 7 6 5 5 6 8 10 12 14 16 18 19 20 21 22 22 22 22 22 25 27 29 31 33 35
40 38 36 34 31 30 28 27 27 25 22 21 20 20 18 18 18 18 18 18 18 18 17 15 14 13 11 10 8 7 7 8 9 11 13 15 17 18 19 20 20 21 21 20 20 21 23 27 29 29 32 35 37 39
38 36 34 32 30 28 28 27 26 24 22 21 21 20 19 18 18 18 18 19 19 18 17 15 13 12 10 8 9 9 11 12 14 16 17 18 19 20 20 20 20 20 20 21 23 25 28 30 32 35 37 38 40 40
Wind_Direction
231 232 234 236 237 237 240 242 244 245 246 246 247 249 250 252 252 250 251 253 253 253 255 260 261 264 269 270 271 274 276 277 276 277 276 277 275 274 271 267 267 267 267 270 267 266 269 261 252 252 255 252 248 246
232 233 235 237 238 238 240 242 244 246 247 248 246 248 249 250 250 249 252 253 254 253 254 259 264 265 267 272 274 274 276 277 276 277 275 275 275 273 272 271 271 265 267 265 269 266 265 256 254 248 252 252 252 244
232 234 236 237 238 238 240 242 244 244 244 245 245 245 246 249 250 250 251 253 254 255 255 259 263 269 269 271 273 274 276 272 277 275 275 276 278 277 276 273 267 269 271 270 267 267 261 253 255 250 254 255 256 252
232 234 235 236 237 238 239 240 240 241 241 242 243 245 247 249 252 251 250 252 255 256 258 262 264 267 270 272 274 274 272 274 273 276 279 280 279 276 276 272 271 273 267 267 266 264 262 256 254 253 254 255 253 252
233 233 233 235 236 237 237 237 238 240 240 241 244 246 248 250 251 251 252 254 256 258 258 260 265 267 269 271 273 272 272 273 276 280 282 284 281 278 275 272 270 268 263 263 261 260 259 256 258 255 253 252 249 248
230 231 232 233 234 234 235 235 236 238 240 242 243 245 247 249 249 250 253 255 255 257 258 258 261 265 268 270 271 274 277 281 281 281 281 279 279 280 282 289 282 258 258 259 260 257 259 256 255 253 251 247 245 243
227 228 229 231 231 232 231 232 233 235 238 239 241 244 246 247 247 251 253 253 255 257 257 254 254 258 260 262 266 271 274 277 279 279 280 280 282 279 278 265 262 264 271 272 271 270 272 262 254 256 253 248 247 247
225 226 227 228 228 228 228 228 229 231 233 236 240 242 242 244 246 249 249 250 251 251 253 252 249 253 257 262 268 272 276 278 280 280 282 284 282 284 280 275 269 269 265 259 263 260 254 260 259 254 255 253 251 246
221 223 223 224 225 226 226 225 227 228 231 235 237 238 239 241 243 244 244 244 247 248 247 247 249 253 259 264 268 273 277 280 280 278 275 276 282 286 283 284 284 276 273 273 276 268 257 246 246 249 254 254 249 248
217 219 219 220 222 222 223 224 225 227 229 231 234 235 236 238 240 241 241 240 240 244 245 246 249 255 261 269 277 281 281 279 278 274 273 275 281 282 284 285 283 284 283 276 267 251 246 249 248 246 245 247 246 245
214 215 215 217 219 220 221 221 222 224 227 228 230 232 233 235 237 237 237 235 237 239 242 246 253 259 266 275 278 280 280 279 279 274 269 274 276 277 275 279 284 273 267 264 258 257 252 251 245 243 244 241 237 236
210 211 211 214 215 217 220 221 222 223 223 225 227 229 229 232 234 233 234 231 231 233 238 245 251 262 271 277 280 280 280 279 277 274 270 266 269 269 275 274 272 269 259 254 250 242 238 239 237 237 236 233 228 229
207 207 207 209 213 214 217 217 218 218 220 221 223 224 225 227 227 224 217 216 222 229 236 247 256 266 272 280 285 284 283 278 272 268 266 263 269 264 268 269 261 258 256 250 236 234 236 238 235 237 235 233 228 223
204 203 206 207 210 212 212 213 214 215 217 218 220 222 221 216 205 197 207 217 224 233 242 251 262 270 274 282 283 283 283 279 271 269 267 264 264 264 265 271 265 256 255 239 229 229 229 227 231 238 237 233 228 224
201 200 203 205 207 209 209 210 211 213 215 216 216 215 209 202 199 198 209 220 227 236 248 258 266 272 280 282 277 269 270 278 279 270 264 260 260 260 261 266 264 253 234 233 223 221 221 219 222 230 229 229 226 216
199 200 201 202 204 205 205 207 208 211 211 211 208 206 203 201 201 204 213 224 232 241 253 264 271 278 286 288 286 281 279 271 271 263 258 258 257 255 252 251 251 233 226 225 225 220 221 223 221 226 229 226 222 212
198 199 198 200 201 201 203 205 206 208 205 201 202 200 200 202 206 209 216 224 233 242 257 266 273 282 287 288 283 277 275 274 269 260 257 257 255 249 243 241 241 231 228 230 232 228 227 230 227 224 225 226 222 220
196 195 197 197 197 199 201 201 203 200 198 199 197 199 202 205 209 215 220 228 236 248 260 269 279 287 287 289 289 284 276 266 259 256 256 259 260 248 240 234 237 231 226 224 228 233 232 232 230 232 231 231 228 227
192 192 194 192 193 197 197 198 198 195 195 195 196 198 203 207 213 218 224 232 243 254 262 273 283 287 289 286 280 276 274 269 261 259 264 264 259 252 241 238 236 236 231 228 230 233 239 242 241 241 240 238 240 240
190 189 187 191 193 192 192 191 194 193 192 192 194 199 205 210 215 220 227 238 250 260 272 282 283 284 284 281 281 278 274 269 261 259 255 244 245 241 242 244 242 234 232 234 237 240 242 243 243 244 246 249 252 252
187 187 189 189 189 186 186 190 189 190 191 193 196 200 207 214 219 224 233 244 254 267 277 279 281 279 280 284 280 276 273 264 257 253 241 228 227 232 233 239 242 236 231 231 236 241 245 248 250 250 249 251 255 258
186 187 187 186 182 183 186 187 190 190 192 194 197 200 206 214 220 227 237 249 261 269 274 276 280 280 277 271 267 270 268 259 252 240 225 217 221 232 240 238 238 234 227 226 229 234 238 241 244 249 252 254 256 259
183 184 184 181 179 183 186 189 192 193 192 194 198 201 206 214 223 231 241 253 261 266 272 279 279 273 270 267 266 260 257 248 233 216 205 205 214 230 244 241 233 231 233 234 238 245 252 257 258 255 255 257 259 261
180 180 172 170 178 182 184 189 194 195 194 194 197 201 208 216 224 235 244 251 255 264 272 272 264 262 259 256 253 244 230 218 206 203 208 212 220 231 237 235 231 230 232 234 238 241 246 250 255 259 262 264 265 266
164 156 164 176 177 180 186 190 194 192 191 193 196 200 207 215 225 234 241 243 249 254 259 251 246 231 216 215 226 221 212 204 195 194 207 219 227 234 244 248 250 253 257 257 258 260 261 263 266 269 271 274 276 277
161 170 176 177 177 182 187 191 192 190 191 194 196 200 207 216 225 228 225 231 234 244 245 231 221 209 197 185 175 177 195 193 193 201 207 218 227 229 232 238 248 255 262 272 278 284 287 291 294 297 297 297 295 296
173 175 174 175 181 187 190 189 188 188 191 194 197 202 208 215 219 212 216 219 215 223 225 219 213 206 187 174 184 181 183 185 189 189 193 195 195 207 216 227 269 284 286 290 294 298 300 300 299 298 297 298 296 296
174 173 175 178 182 182 182 185 185 188 192 195 199 204 208 211 205 201 206 209 206 205 206 197 187 180 170 162 157 157 159 160 163 163 167 186 211 240 265 276 278 284 292 297 301 301 299 298 298 299 300 302 303 303
167 169 173 175 175 177 181 184 188 191 192 196 200 203 205 198 190 197 200 203 203 199 194 194 188 183 178 170 165 166 171 175 180 187 200 224 250 267 279 287 291 294 298 300 299 299 300 302 305 307 308 310 311 310
169 170 171 174 177 179 180 184 189 191 192 194 197 197 197 195 196 193 196 203 207 205 206 201 194 189 186 183 181 181 184 196 215 236 259 274 281 289 294 300 303 304 303 303 304 304 305 307 310 313 314 312 311 312
170 170 171 171 176 181 186 189 190 189 187 188 190 191 191 194 189 189 195 199 199 198 198 197 196 195 196 198 203 211 217 233 250 264 276 285 292 296 298 299 299 300 302 303 305 306 309 314 316 317 318 319 318 319
168 169 176 180 182 185 185 185 186 186 186 186 186 183 180 185 188 189 192 194 191 189 189 188 194 203 209 212 212 220 238 257 272 282 289 293 293 293 295 297 298 301 303 305 308 311 315 318 321 321 323 325 323 322
173 177 179 180 181 180 184 186 187 186 185 185 185 182 178 180 182 186 188 189 192 193 195 200 205 205 209 220 239 256 271 279 286 287 289 292 293 294 298 302 303 304 306 310 312 314 318 321 324 325 326 326 323 321
Height
10103 10113 10123 10134 10144 10154 10164 10172 10181 10189 10196 10204 10210 10217 10223 10230 10238 10252 10251 10259 10266 10273 10276 10274 10266 10271 10269 10267 10270 10270 10269 10262 10252 10253 10250 10247 10251 10249 10254 10255 10254 10244 10234 10237 10226 10236 10267 10261 10249 10245 10232 10229 10247 10253
10083 10094 10103 10114 10124 10133 10143 10152 10161 10169 10176 10182 10189 10197 10204 10210 10216 10230 10234 10235 10243 10253 10264 10253 10253 10247 10247 10244 10251 10250 10253 10241 10229 10232 10229 10227 10231 10228 10228 10237 10226 10223 10214 10212 10213 10224 10235 10229 10211 10219 10201 10209 10224 10236
10064 10074 10084 10095 10104 10113 10123 10133 10141 10148 10156 10164 10170 10178 10186 10191 10197 10209 10213 10215 10222 10233 10241 10244 10226 10230 10225 10224 10227 10238 10227 10214 10220 10208 10209 10211 10212 10206 10206 10214 10196 10203 10194 10196 10184 10211 10206 10198 10194 10203 10193 10204 10211 10216
10045 10055 10066 10076 10085 10095 10105 10114 10123 10130 10138 10146 10153 10161 10168 10174 10179 10187 10194 10196 10203 10212 10224 10223 10211 10208 10206 10206 10207 10215 10207 10200 10201 10193 10191 10193 10190 10184 10184 10187 10187 10184 10183 10171 10175 10186 10178 10186 10177 10182 10185 10195 10194 10193
10027 10038 10049 10059 10068 10078 10088 10097 10105 10113 10121 10129 10137 10144 10150 10156 10160 10168 10176 10180 10184 10190 10203 10205 10196 10191 10188 10188 10189 10190 10188 10185 10182 10179 10175 10171 10168 10161 10165 10170 10181 10163 10162 10150 10159 10161 10164 10168 10162 10168 10173 10174 10177 10180
10010 10022 10032 10042 10052 10062 10071 10080 10088 10097 10105 10112 10121 10128 10133 10138 10144 10151 10162 10164 10165 10171 10183 10187 10183 10175 10175 10174 10172 10172 10168 10167 10166 10164 10160 10156 10150 10146 10151 10160 10157 10140 10139 10134 10140 10143 10141 10149 10152 10146 10154 10156 10157 10164
9994 10005 10015 10025 10036 10046 10056 10064 10074 10082 10090 10098 10106 10112 10116 10122 10129 10138 10147 10144 10151 10156 10163 10169 10171 10161 10163 10162 10160 10159 10158 10157 10150 10147 10143 10141 10138 10135 10137 10138 10125 10129 10133 10130 10124 10134 10139 10130 10139 10139 10139 10140 10147 10158
9979 9989 10000 10011 10021 10031 10040 10050 10059 10068 10076 10083 10090 10096 10102 10108 10116 10126 10129 10131 10136 10142 10146 10154 10152 10150 10151 10149 10149 10146 10144 10141 10137 10133 10130 10126 10120 10124 10124 10122 10121 10116 10119 10117 10116 10121 10121 10122 10128 10126 10123 10132 10142 10146
9964 9976 9986 9997 10008 10017 10026 10035 10045 10054 10062 10069 10076 10083 10089 10097 10105 10108 10113 10118 10123 10128 10133 10137 10137 10139 10139 10138 10138 10136 10133 10128 10124 10122 10118 10114 10113 10111 10107 10108 10111 10111 10112 10111 10108 10107 10108 10111 10106 10112 10122 10126 10129 10137
9950 9961 9973 9984 9993 10003 10013 10022 10032 10040 10047 10055 10063 10071 10078 10083 10088 10094 10100 10106 10112 10116 10120 10123 10125 10127 10127 10128 10126 10124 10120 10115 10113 10111 10107 10106 10103 10099 10099 10099 10099 10098 10099 10100 10098 10096 10096 10098 10103 10105 10108 10116 10121 10128
9938 9949 9960 9972 9981 9991 10000 10009 10019 10026 10034 10042 10050 10058 10065 10069 10073 10081 10089 10097 10103 10106 10109 10111 10112 10113 10116 10117 10113 10110 10106 10102 10099 10099 10098 10096 10094 10091 10090 10092 10093 10091 10090 10090 10089 10091 10090 10091 10095 10099 10104 10111 10116 10122
9924 9937 9950 9961 9971 9980 9988 9997 10006 10014 10023 10031 10039 10046 10052 10056 10065 10076 10084 10090 10093 10096 10099 10098 10101 10105 10107 10103 10100 10098 10095 10091 10088 10086 10087 10086 10086 10085 10083 10085 10085 10083 10082 10082 10085 10085 10085 10088 10092 10095 10100 10104 10110 10116
9914 9927 9938 9949 9959 9968 9977 9986 9993 10002 10010 10019 10026 10033 10041 10050 10062 10073 10076 10079 10081 10081 10085 10088 10093 10097 10094 10091 10089 10086 10082 10080 10078 10076 10076 10077 10078 10076 10076 10076 10077 10077 10077 10079 10080 10080 10082 10086 10088 10090 10096 10099 10105 10111
9906 9918 9929 9939 9949 9957 9966 9974 9984 9993 10001 10010 10018 10026 10035 10050 10058 10061 10063 10066 10070 10072 10076 10082 10084 10084 10081 10082 10079 10076 10072 10070 10068 10067 10068 10069 10069 10068 10068 10070 10071 10071 10074 10075 10076 10077 10080 10083 10085 10089 10094 10096 10101 10106
9896 9908 9919 9930 9939 9949 9959 9968 9978 9986 9995 10003 10012 10023 10035 10041 10046 10051 10054 10056 10061 10066 10070 10072 10073 10073 10071 10072 10070 10068 10065 10062 10060 10060 10060 10059 10061 10061 10062 10063 10065 10068 10069 10070 10073 10075 10077 10080 10083 10084 10088 10093 10097 10102
9887 9900 9910 9923 9933 9943 9954 9963 9971 9979 9989 9998 10010 10020 10027 10033 10039 10043 10047 10050 10056 10060 10061 10063 10063 10063 10061 10060 10058 10056 10054 10052 10052 10052 10050 10051 10052 10054 10055 10056 10059 10061 10062 10065 10067 10070 10072 10075 10079 10084 10087 10090 10094 10099
9881 9892 9906 9916 9928 9939 9948 9957 9967 9977 9987 9998 10005 10012 10019 10025 10031 10037 10042 10046 10049 10053 10054 10055 10054 10054 10053 10051 10048 10045 10044 10044 10044 10043 10043 10043 10045 10047 10050 10049 10052 10055 10058 10061 10063 10066 10069 10071 10075 10080 10083 10087 10090 10094
9876 9891 9902 9913 9925 9935 9945 9955 9964 9975 9986 9992 9998 10006 10012 10019 10025 10031 10036 10040 10044 10046 10046 10046 10046 10045 10043 10041 10038 10037 10036 10036 10035 10035 10034 10035 10037 10039 10043 10044 10045 10048 10051 10054 10058 10061 10063 10066 10070 10074 10078 10080 10083 10086
9877 9887 9900 9913 9924 9932 9943 9953 9962 9971 9978 9985 9993 10000 10006 10013 10020 10025 10029 10033 10037 10037 10038 10038 10037 10036 10035 10031 10029 10029 10029 10028 10028 10028 10029 10032 10032 10034 10036 10037 10040 10042 10045 10048 10050 10053 10056 10059 10063 10067 10070 10073 10077 10079
9875 9886 9898 9907 9917 9928 9940 9950 9958 9966 9974 9981 9987 9994 10001 10007 10013 10019 10023 10027 10028 10029 10030 10030 10029 10027 10025 10023 10022 10022 10021 10021 10022 10022 10024 10026 10027 10029 10031 10032 10034 10037 10039 10042 10044 10047 10050 10053 10056 10060 10063 10065 10068 10071
9871 9883 9895 9906 9916 9926 9938 9947 9955 9963 9969 9975 9982 9989 9997 10003 10009 10014 10018 10019 10021 10022 10023 10022 10021 10019 10018 10017 10016 10015 10015 10016 10017 10018 10019 10020 10022 10025 10026 10027 10029 10032 10035 10037 10039 10041 10043 10046 10048 10051 10054 10058 10060 10062
9869 9880 9892 9902 9914 9925 9934 9942 9948 9955 9962 9970 9978 9985 9992 9998 10004 10009 10012 10014 10015 10016 10016 10015 10013 10012 10012 10012 10011 10010 10010 10011 10012 10014 10016 10018 10020 10022 10024 10025 10027 10028 10030 10032 10034 10036 10038 10039 10042 10043 10045 10047 10049 10050
9872 9883 9894 9904 9914 9924 9932 9940 9948 9954 9961 9968 9976 9983 9990 9995 9999 10004 10006 10007 10009 10010 10009 10008 10007 10007 10007 10006 10006 10006 10007 10008 10010 10011 10013 10014 10016 10018 10020 10021 10023 10025 10027 10029 10031 10033 10034 10035 10037 10038 10039 10039 10040 10041
9875 9886 9899 9910 9916 9924 9934 9940 9945 9952 9960 9968 9975 9981 9986 9991 9995 9997 10000 10002 10003 10003 10003 10002 10003 10003 10003 10002 10003 10003 10004 10006 10007 10009 10010 10012 10014 10016 10017 10018 10019 10021 10022 10024 10026 10027 10028 10029 10030 10031 10032 10032 10033 10033
9882 9893 9901 9907 9916 9924 9930 9937 9943 9952 9959 9965 9971 9977 9981 9986 9989 9992 9995 9997 9998 9998 9998 9998 9999 9999 9999 9999 9999 10000 10002 10003 10005 10007 10009 10011 10013 10014 10015 10016 10017 10018 10019 10020 10021 10022 10023 10024 10024 10025 10025 10025 10025 10024
9883 9890 9898 9906 9915 9922 9928 9935 9942 9949 9956 9962 9967 9973 9978 9982 9985 9988 9990 9992 9994 9994 9994 9995 9996 9996 9995 9996 9997 9999 10000 10001 10003 10005 10007 10009 10011 10012 10013 10014 10015 10016 10016 10017 10017 10017 10018 10019 10019 10019 10018 10017 10015 10014
9880 9889 9899 9906 9912 9919 9927 9935 9943 9949 9955 9960 9966 9971 9975 9978 9980 9984 9987 9989 9990 9991 9992 9993 9993 9994 9994 9995 9996 9997 9999 10001 10003 10004 10006 10008 10009 10011 10012 10013 10014 10015 10015 10015 10015 10016 10016 10015 10014 10013 10012 10011 10009 10008
9879 9890 9898 9907 9915 9923 9931 9937 9943 9948 9953 9958 9963 9966 9970 9972 9977 9982 9984 9986 9988 9990 9991 9992 9992 9993 9994 9995 9996 9998 10000 10002 10003 10005 10006 10007 10009 10011 10012 10013 10013 10014 10014 10013 10013 10012 10011 10010 10009 10008 10006 10004 10001 9998
9888 9895 9902 9910 9917 9923 9928 9933 9939 9945 9951 9956 9959 9964 9968 9972 9975 9978 9981 9984 9986 9988 9990 9991 9992 9994 9995 9996 9997 9999 10001 10002 10004 10005 10007 10008 10010 10010 10011 10011 10012 10012 10012 10011 10009 10008 10006 10004 10001 9999 9997 9994 9991 9988
9890 9897 9903 9910 9916 9923 9931 9937 9942 9946 9951 9955 9958 9961 9965 9968 9970 9973 9977 9980 9983 9986 9988 9990 9992 9994 9995 9996 9998 10000 10001 10003 10004 10005 10006 10007 10008 10009 10009 10009 10008 10007 10006 10005 10003 10001 9999 9997 9995 9993 9990 9987 9983 9979
9894 9901 9909 9916 9920 9925 9930 9935 9940 9945 9949 9952 9956 9959 9962 9966 9969 9971 9974 9978 9981 9985 9987 9990 9991 9993 9995 9997 9998 9999 10000 10002 10003 10004 10005 10005 10005 10006 10005 10004 10003 10002 10000 9998 9996 9994 9992 9990 9988 9985 9981 9977 9972 9967
9898 9904 9910 9916 9922 9927 9932 9936 9940 9944 9948 9952 9955 9958 9961 9964 9967 9970 9973 9977 9980 9983 9986 9988 9991 9992 9994 9996 9997 9998 9999 10000 10001 10002 10002 10002 10002 10002 10001 9999 9998 9996 9994 9992 9990 9988 9986 9982 9978 9974 9970 9966 9961 9956
9901 9906 9912 9917 9922 9926 9930 9934 9939 9943 9947 9951 9954 9957 9960 9963 9966 9970 9973 9976 9979 9982 9984 9987 9989 9991 9993 9994 9995 9997 9998 9998 9999 9999 9999 9998 9997 9996 9994 9992 9990 9989 9987 9985 9982 9979 9976 9972 9968 9964 9960 9956 9951 9946